Terminal Aerodrome Forecast
Issued by NWS

Home | Current Version | Previous Version | Text Only | Print | Product List | Glossary On
Versions: 1 2 3 4 5 6 7 8 9 10 11 12 13 14 15 16 17 18 19
846
FTUS41 KALY 011946 AAE
TAFPSF
TAF AMD
KPSF 011946Z 0120/0218 13012KT 3SM -RA BR SCT017 OVC040
     FM012100 13005KT 4SM -RA BR OVC020
     FM020100 11005KT 4SM -DZ BR BKN007 OVC020
     FM020700 09006KT 6SM BR OVC020
     FM021500 14007KT 3SM -RA BKN007 OVC015=

USA.gov is the U.S. government's official web portal to all federal, state and local government web resources and services.